TimePST,TemperatureF,Dew PointF,Humidity,Sea Level PressureIn,VisibilityMPH,Wind Direction,Wind SpeedMPH,Gust SpeedMPH,PrecipitationIn,Events,Conditions,WindDirDegrees,DateUTC
12:54 AM,-9999,-9999,N/A,30.13,-9999.0,NE,9.2,-,N/A,,Clear,40,2013-02-27 08:54:00
1:54 AM,-9999,-9999,N/A,30.15,-9999.0,ENE,8.1,-,N/A,,Clear,60,2013-02-27 09:54:00
2:54 AM,-9999,-9999,N/A,30.16,-9999.0,ENE,10.4,-,N/A,,Clear,70,2013-02-27 10:54:00
3:54 AM,-9999,-9999,N/A,30.17,-9999.0,ENE,11.5,-,N/A,,Clear,60,2013-02-27 11:54:00
4:54 AM,-9999,-9999,N/A,30.17,-9999.0,ENE,12.7,-,N/A,,Clear,60,2013-02-27 12:54:00
5:54 AM,60.4,17.2,19,30.18,7.0,ENE,12.7,-,N/A,,Clear,60,2013-02-27 13:54:00
6:54 AM,60.4,14.9,17,30.20,7.0,ENE,12.7,-,N/A,,Clear,60,2013-02-27 14:54:00
7:54 AM,62.6,16.5,17,30.23,7.0,ENE,13.8,-,N/A,,Clear,70,2013-02-27 15:54:00
8:54 AM,65.8,17.2,15,30.24,7.0,ENE,16.1,21.9,N/A,,Clear,60,2013-02-27 16:54:00
9:54 AM,68.4,16.5,14,30.24,7.0,ENE,17.3,24.2,N/A,,Clear,60,2013-02-27 17:54:00
10:54 AM,71.1,44.6,39,30.25,7.0,NE,17.3,25.3,N/A,,Clear,40,2013-02-27 18:54:00
11:54 AM,72.9,19.9,14,30.24,7.0,NE,12.7,23.0,N/A,,Clear,50,2013-02-27 19:54:00
12:54 PM,74.5,20.7,13,30.22,7.0,North,6.9,-,N/A,,Clear,10,2013-02-27 20:54:00
1:54 PM,70.9,34.7,26,30.20,7.0,West,12.7,19.6,N/A,,Partly Cloudy,280,2013-02-27 21:54:00
2:54 PM,72.9,30.4,21,30.20,7.0,WNW,16.1,-,N/A,,Partly Cloudy,290,2013-02-27 22:54:00
3:54 PM,72.0,24.1,17,30.21,7.0,WNW,11.5,-,N/A,,Partly Cloudy,300,2013-02-27 23:54:00
4:54 PM,65.3,39.7,39,30.22,7.0,WNW,13.8,-,N/A,,Partly Cloudy,290,2013-02-28 00:54:00
5:54 PM,61.9,37.2,40,30.23,7.0,Calm,Calm,-,N/A,,Partly Cloudy,0,2013-02-28 01:54:00
6:54 PM,61.5,32.7,34,30.24,7.0,Calm,Calm,-,N/A,,Partly Cloudy,0,2013-02-28 02:54:00
7:54 PM,61.5,27.1,27,30.26,7.0,NNE,4.6,-,N/A,,Clear,30,2013-02-28 03:54:00
8:54 PM,58.1,30.2,35,30.27,7.0,North,4.6,-,N/A,,Clear,10,2013-02-28 04:54:00
9:54 PM,55.9,28.6,35,30.28,7.0,North,8.1,-,N/A,,Clear,350,2013-02-28 05:54:00
10:54 PM,54.5,31.6,42,30.29,7.0,NW,6.9,-,N/A,,Clear,310,2013-02-28 06:54:00
11:54 PM,-9999,-9999,N/A,30.30,-9999.0,NNE,3.5,-,N/A,,Clear,20,2013-02-28 07:54:00